LIVE Streaming HD
Get Adobe Flash player
Annunci di Google
DNA SURF-SHOP
Annunci di Google
Annunci
BodemaAuto s.r.l
Annunci
Dati meteo stazione (refresh automatico ogni minuto)
Senigallia(AN) VENTO: VELOCITÀ   PIOGGIA: QTA GIORNO TEMPERATURA: ATTUALE
SPOT: Darsena Di Senigallia RAFFICA MASSIMA: QTA MENSILE: MASSIMA:
VELOCITÀ MEDIA: QTA ANNUALE: MINIMA:
DIREZIONE: UMIDITÀ: WIND CHILL:
TIPO: DEW POINT:
BEAUFORT: PRESSIONE:
I nostri partner
Annunci Privati
Senigallia(AN) nelle ultime ore
Applica filtri in visualizzazione Intervallo delle letture nelle ultime

Ora Direzione Vento Velocita' Vento Media Vento Raffica Max. Temperatura Wind Chill Pioggia Pressione
03:08:11315 °(NW)0 Kts0.9 Kts8.7 Kts23.7 °C23.7 °C0 mm1010.4 Hpa
03:02:03315 °(NW)0 Kts0.9 Kts8.7 Kts23.5 °C23.5 °C0 mm1010.4 Hpa
02:57:58315 °(NW)1.7 Kts0 Kts8.7 Kts23.2 °C23.2 °C0 mm1010.4 Hpa
02:51:52310 °(NW)0 Kts0 Kts8.7 Kts23.1 °C23.1 °C0 mm1010.3 Hpa
02:47:47262 °(W)0 Kts0.9 Kts8.7 Kts22.9 °C22.9 °C0 mm1010.2 Hpa
02:40:58229 °(SW)0 Kts3.5 Kts8.7 Kts22.7 °C22.7 °C0 mm1010.3 Hpa
02:38:10229 °(SW)1.7 Kts4.3 Kts8.7 Kts22.7 °C22.2 °C0 mm1010.4 Hpa
02:33:20213 °(SSW)6.1 Kts3.5 Kts8.7 Kts22.5 °C22.5 °C0 mm1010.4 Hpa
02:27:13191 °(S)1.7 Kts0.9 Kts7.8 Kts22.2 °C22.2 °C0 mm1010.4 Hpa
02:23:08234 °(SW)0 Kts0 Kts7.8 Kts22.1 °C22.1 °C0 mm1010.5 Hpa
02:17:01234 °(SW)0 Kts0.9 Kts7.8 Kts22.1 °C22.1 °C0 mm1010.5 Hpa
02:12:56234 °(SW)0 Kts0.9 Kts7.8 Kts22 °C22 °C0 mm1010.5 Hpa
02:06:49234 °(SW)1.7 Kts0.9 Kts7.8 Kts21.9 °C21.9 °C0 mm1010.5 Hpa
02:02:44234 °(SW)0 Kts0.9 Kts7.8 Kts21.9 °C21.9 °C0 mm1010.6 Hpa
01:57:04234 °(SW)0 Kts1.7 Kts7.8 Kts21.9 °C21.9 °C0 mm1010.7 Hpa
01:52:59234 °(SW)0 Kts1.7 Kts7.8 Kts21.9 °C21.9 °C0 mm1010.9 Hpa
01:46:52234 °(SW)0.9 Kts0.9 Kts7.8 Kts21.9 °C21.9 °C0 mm1010.9 Hpa
01:42:47234 °(SW)0.9 Kts1.7 Kts7.8 Kts22 °C22 °C0 mm1010.9 Hpa
01:36:03228 °(SW)3.5 Kts1.7 Kts7.8 Kts22.1 °C22.1 °C0 mm1011.1 Hpa
01:31:47224 °(SW)0 Kts2.6 Kts7.8 Kts22.1 °C22.1 °C0 mm1011 Hpa
01:27:40222 °(SW)1.7 Kts2.6 Kts7.8 Kts22.2 °C22.2 °C0 mm1011 Hpa
01:21:30207 °(SSW)1.7 Kts1.7 Kts7.8 Kts22.2 °C22.2 °C0 mm1011.2 Hpa
01:17:24206 °(SSW)2.6 Kts1.7 Kts7.8 Kts22.2 °C22.2 °C0 mm1011.2 Hpa
01:13:19219 °(SW)0.9 Kts2.6 Kts7.8 Kts22.2 °C22.2 °C0 mm1011.3 Hpa